When you browse on this site, cookies collect data to enhance your experience and personalize the content and advertising you see.
Visit our Privacy Policy to learn more. By continuing to use the site, you agree to this use of cookies and data.
  • In Hungary
  • List of Countries
  • For 7 days
  • Water Temperature
  • Satellite Maps
  • Weather Map
  • News
  • Weather Widgets
  • user-avatar
    Login

    Hourly Weather Zaria

    Today, 22 January, Tuesday

    Time Temperature Precipitation Wind Pressure Humidity
    00:00 +25°C° 0 mm 2 mps 704 mmHg 19%
    01:00 +24°C° 0 mm 2 mps 704 mmHg 19%
    02:00 +24°C° 0 mm 2 mps 704 mmHg 20%
    03:00 +23°C° 0 mm 2 mps 704 mmHg 20%
    04:00 +23°C° 0 mm 2 mps 703 mmHg 21%
    05:00 +21°C° 0 mm 2 mps 704 mmHg 21%
    06:00 +21°C° 0 mm 2 mps 704 mmHg 22%
    07:00 +22°C° 0 mm 1 mps 704 mmHg 22%
    08:00 +25°C° 0 mm 2 mps 704 mmHg 19%
    09:00 +28°C° 0 mm 2 mps 705 mmHg 16%
    10:00 +31°C° 0 mm 3 mps 706 mmHg 13%
    11:00 +34°C° 0 mm 2 mps 706 mmHg 13%
    12:00 +36°C° 0 mm 2 mps 705 mmHg 13%
    13:00 +37°C° 0 mm 2 mps 705 mmHg 12%
    14:00 +37°C° 0 mm 1 mps 704 mmHg 12%
    15:00 +37°C° 0 mm 1 mps 704 mmHg 12%
    16:00 +36°C° 0 mm 0 mps 703 mmHg 12%
    17:00 +33°C° 0 mm 0 mps 703 mmHg 14%
    18:00 +33°C° 0 mm 1 mps 703 mmHg 16%
    19:00 +30°C° 0 mm 1 mps 703 mmHg 18%
    20:00 +29°C° 0 mm 1 mps 703 mmHg 19%
    21:00 +28°C° 0 mm 1 mps 704 mmHg 19%
    22:00 +27°C° 0 mm 2 mps 704 mmHg 20%
    23:00 +27°C° 0 mm 1 mps 704 mmHg 20%

    Tomorrow, 23 January, Wednesday

    Time Temperature Precipitation Wind Pressure Humidity
    00:00 +26°C° 0 mm 1 mps 704 mmHg 21%
    01:00 +25°C° 0 mm 1 mps 704 mmHg 22%
    02:00 +24°C° 0 mm 1 mps 703 mmHg 23%
    03:00 +24°C° 0 mm 1 mps 703 mmHg 24%
    04:00 +23°C° 0 mm 1 mps 703 mmHg 25%
    05:00 +23°C° 0 mm 1 mps 703 mmHg 25%
    06:00 +23°C° 0 mm 2 mps 703 mmHg 24%
    07:00 +21°C° 0 mm 2 mps 703 mmHg 24%
    08:00 +25°C° 0 mm 2 mps 704 mmHg 19%
    09:00 +28°C° 0 mm 3 mps 705 mmHg 14%
    10:00 +31°C° 0 mm 3 mps 706 mmHg 9%
    11:00 +34°C° 0 mm 3 mps 705 mmHg 9%
    12:00 +35°C° 0 mm 2 mps 705 mmHg 9%
    13:00 +37°C° 0 mm 2 mps 704 mmHg 9%
    14:00 +38°C° 0 mm 2 mps 704 mmHg 9%
    15:00 +37°C° 0 mm 1 mps 703 mmHg 9%
    16:00 +37°C° 0 mm 1 mps 702 mmHg 9%
    17:00 +35°C° 0 mm 1 mps 702 mmHg 10%
    18:00 +33°C° 0 mm 1 mps 702 mmHg 12%
    19:00 +30°C° 0 mm 1 mps 702 mmHg 14%
    20:00 +29°C° 0 mm 2 mps 703 mmHg 14%
    21:00 +28°C° 0 mm 2 mps 703 mmHg 15%
    22:00 +27°C° 0 mm 2 mps 704 mmHg 16%
    23:00 +26°C° 0 mm 2 mps 703 mmHg 15%

    Day after tomorrow, 24 January, Thursday

    Time Temperature Precipitation Wind Pressure Humidity
    00:00 +25°C° 0 mm 2 mps 703 mmHg 15%
    01:00 +24°C° 0 mm 2 mps 703 mmHg 15%
    02:00 +23°C° 0 mm 2 mps 703 mmHg 14%
    03:00 +22°C° 0 mm 1 mps 702 mmHg 14%
    04:00 +22°C° 0 mm 1 mps 702 mmHg 14%
    05:00 +21°C° 0 mm 1 mps 702 mmHg 14%
    06:00 +21°C° 0 mm 1 mps 702 mmHg 14%
    07:00 +21°C° 0 mm 1 mps 702 mmHg 14%
    08:00 +24°C° 0 mm 2 mps 703 mmHg 12%
    09:00 +27°C° 0 mm 2 mps 704 mmHg 9%
    10:00 +30°C° 0 mm 2 mps 705 mmHg 7%
    11:00 +32°C° 0 mm 2 mps 705 mmHg 7%
    12:00 +35°C° 0 mm 1 mps 704 mmHg 6%
    13:00 +37°C° 0 mm 1 mps 704 mmHg 6%
    14:00 +37°C° 0 mm 1 mps 703 mmHg 6%
    15:00 +37°C° 0 mm 1 mps 703 mmHg 7%
    16:00 +37°C° 0 mm 1 mps 702 mmHg 7%
    17:00 +34°C° 0 mm 1 mps 702 mmHg 8%
    18:00 +32°C° 0 mm 1 mps 702 mmHg 10%
    19:00 +27°C° 0 mm 0 mps 702 mmHg 11%
    20:00 +28°C° 0 mm 1 mps 702 mmHg 12%
    21:00 +27°C° 0 mm 1 mps 703 mmHg 12%
    22:00 +26°C° 0 mm 1 mps 704 mmHg 13%
    23:00 +25°C° 0 mm 1 mps 703 mmHg 13%

    25 January, Friday

    Time Temperature Precipitation Wind Pressure Humidity
    00:00 +24°C° 0 mm 1 mps 703 mmHg 13%
    01:00 +24°C° 0 mm 1 mps 703 mmHg 13%
    02:00 +23°C° 0 mm 1 mps 703 mmHg 13%
    03:00 +22°C° 0 mm 1 mps 702 mmHg 12%
    04:00 +22°C° 0 mm 1 mps 702 mmHg 12%
    05:00 +22°C° 0 mm 1 mps 702 mmHg 12%
    06:00 +22°C° 0 mm 1 mps 703 mmHg 12%
    07:00 +21°C° 0 mm 1 mps 703 mmHg 12%
    08:00 +25°C° 0 mm 2 mps 704 mmHg 11%
    09:00 +28°C° 0 mm 2 mps 705 mmHg 9%
    10:00 +33°C° 0 mm 3 mps 706 mmHg 7%
    11:00 +34°C° 0 mm 2 mps 705 mmHg 7%
    12:00 +36°C° 0 mm 2 mps 705 mmHg 7%
    13:00 +37°C° 0 mm 1 mps 704 mmHg 7%
    14:00 +37°C° 0 mm 1 mps 704 mmHg 7%
    15:00 +37°C° 0 mm 1 mps 703 mmHg 8%
    16:00 +37°C° 0 mm 1 mps 702 mmHg 8%
    17:00 +35°C° 0 mm 1 mps 702 mmHg 10%
    18:00 +33°C° 0 mm 1 mps 702 mmHg 11%
    19:00 +31°C° 0 mm 2 mps 702 mmHg 12%
    20:00 +29°C° 0 mm 2 mps 703 mmHg 13%
    21:00 +28°C° 0 mm 2 mps 703 mmHg 14%
    22:00 +27°C° 0 mm 2 mps 704 mmHg 15%
    23:00 +26°C° 0 mm 2 mps 704 mmHg 15%

    26 January, Saturday

    Time Temperature Precipitation Wind Pressure Humidity
    00:00 +25°C° 0 mm 2 mps 704 mmHg 16%
    01:00 +24°C° 0 mm 2 mps 703 mmHg 16%
    02:00 +23°C° 0 mm 1 mps 703 mmHg 16%
    03:00 +23°C° 0 mm 1 mps 703 mmHg 15%
    04:00 +22°C° 0 mm 1 mps 702 mmHg 15%
    05:00 +22°C° 0 mm 1 mps 703 mmHg 15%
    06:00 +22°C° 0 mm 1 mps 703 mmHg 15%
    07:00 +21°C° 0 mm 1 mps 703 mmHg 14%
    08:00 +25°C° 0 mm 2 mps 704 mmHg 12%
    09:00 +28°C° 0 mm 2 mps 705 mmHg 10%
    10:00 +31°C° 0 mm 3 mps 706 mmHg 8%
    11:00 +34°C° 0 mm 2 mps 705 mmHg 7%
    12:00 +36°C° 0 mm 2 mps 705 mmHg 7%
    13:00 +38°C° 0 mm 2 mps 704 mmHg 6%
    14:00 +37°C° 0 mm 1 mps 704 mmHg 6%
    15:00 +37°C° 0 mm 1 mps 703 mmHg 7%
    16:00 +39°C° 0 mm 1 mps 703 mmHg 7%
    17:00 +35°C° 0 mm 1 mps 703 mmHg 8%
    18:00 +33°C° 0 mm 1 mps 703 mmHg 9%
    19:00 +30°C° 0 mm 2 mps 703 mmHg 10%
    20:00 +29°C° 0 mm 2 mps 703 mmHg 11%
    21:00 +28°C° 0 mm 2 mps 704 mmHg 12%
    22:00 +27°C° 0 mm 2 mps 704 mmHg 12%
    23:00 +26°C° 0 mm 2 mps 704 mmHg 13%

    27 January, Sunday

    Time Temperature Precipitation Wind Pressure Humidity
    00:00 +24°C° 0 mm 1 mps 703 mmHg 13%
    01:00 +23°C° 0 mm 1 mps 703 mmHg 13%
    02:00 +23°C° 0 mm 1 mps 703 mmHg 13%
    03:00 +23°C° 0 mm 1 mps 702 mmHg 13%
    04:00 +21°C° 0 mm 2 mps 702 mmHg 13%
    05:00 +21°C° 0 mm 2 mps 702 mmHg 13%
    06:00 +21°C° 0 mm 2 mps 702 mmHg 13%
    07:00 +20°C° 0 mm 2 mps 703 mmHg 13%
    08:00 +24°C° 0 mm 2 mps 703 mmHg 11%
    09:00 +27°C° 0 mm 3 mps 704 mmHg 9%
    10:00 +30°C° 0 mm 3 mps 705 mmHg 8%
    11:00 +33°C° 0 mm 3 mps 704 mmHg 7%
    12:00 +35°C° 0 mm 2 mps 704 mmHg 6%
    13:00 +36°C° 0 mm 1 mps 704 mmHg 6%
    14:00 +36°C° 0 mm 1 mps 703 mmHg 6%
    15:00 +37°C° 0 mm 1 mps 702 mmHg 6%
    16:00 +37°C° 0 mm 1 mps 702 mmHg 6%
    17:00 +34°C° 0 mm 1 mps 701 mmHg 7%
    18:00 +30°C° 0 mm 0 mps 701 mmHg 8%
    19:00 +27°C° 0 mm 0 mps 701 mmHg 10%
    20:00 +26°C° 0 mm 0 mps 702 mmHg 10%
    21:00 +25°C° 0 mm 0 mps 702 mmHg 11%
    22:00 +24°C° 0 mm 0 mps 703 mmHg 12%
    23:00 +25°C° 0 mm 1 mps 703 mmHg 12%
    Show more